Cairns, Australia

2:54 PM AEST on March 25, 2017 (GMT +1000)
Cairns International

Weather History for YBCS - January, 2015

Change the Weather History Date:

Wednesday, January 7, 2015

  Actual Average Record
Temperature  
Mean Temperature 76 °F -  
Max Temperature 80 °F 89 °F 95 °F (2016)
Min Temperature 72 °F 74 °F 69 °F (1997)
Cooling Degree Days 11    
Growing Degree Days 26 (Base 50)    
Moisture  
Dew Point 73 °F    
Average Humidity 88    
Maximum Humidity 100    
Minimum Humidity 72    
Precipitation  
Precipitation 1.42 in 0.53 in - ()
Sea Level Pressure  
Sea Level Pressure 29.75 in    
Wind  
Wind Speed 11 mph ()    
Max Wind Speed 17 mph    
Max Gust Speed -    
Visibility 5.3 miles    
Events Rain    
Averages and records for this station are not official NWS values.
T = Trace of Precipitation, MM = Missing Value Source: Averaged Metar Reports

Daily Weather History Graph

Daily Weather History Graph

Search for Another Location

Airport or City:

Trip Planner

Search our weather history database for the weather conditions in past years. The results will help you decide how hot, cold, wet, or windy it might be!

Date:

Astronomy

Jan. 07, 2015 Rise Set
Actual Time 5:50 AM AEST 6:55 PM AEST
Civil Twilight 5:26 AM AEST 7:19 PM AEST
Nautical Twilight 4:58 AM AEST 7:47 PM AEST
Astronomical Twilight 4:29 AM AEST 8:16 PM AEST
Moon 8:18 PM AEST (1/7) 7:19 AM AEST (1/7)
Length of Visible Light 13h 52m
Length of Day
13h 05m
Full, 97% of the Moon is Illuminated
Jan 7
Full
Jan 13
Last Quarter
Jan 20
New
Jan 27
First Quarter
Feb 4
Full

Hourly Weather History & Observations

Time (AEST) Temp. Heat Index Dew Point Humidity Pressure Visibility Wind Dir Wind Speed Gust Speed Precip Events Conditions
12:00 AM 75 °F - 71 °F 82% 29.78 in - South 11.5 mph - -   Overcast
12:00 AM 75.2 °F - 69.8 °F 83% 29.77 in 6.2 mi South 11.5 mph - N/A   Mostly Cloudy
12:30 AM 73.4 °F - 71.6 °F 94% 29.74 in 6.2 mi SSE 13.8 mph - N/A Rain Light Rain Showers
1:00 AM 75 °F - 71 °F 84% 29.76 in - South 11.5 mph - -  
1:00 AM 75.2 °F - 71.6 °F 89% 29.74 in 6.2 mi South 11.5 mph - N/A   Mostly Cloudy
1:30 AM 75.2 °F - 69.8 °F 83% 29.74 in 6.2 mi South 12.7 mph - N/A   Mostly Cloudy
2:00 AM 75.2 °F - 69.8 °F 83% 29.71 in 6.2 mi South 12.7 mph - N/A   Mostly Cloudy
2:30 AM 75.2 °F - 71.6 °F 89% 29.71 in 6.2 mi ESE 9.2 mph - N/A Rain Light Rain Showers
3:00 AM 74 °F - 71 °F 89% 29.72 in - SE 9.2 mph - -   Overcast
3:00 AM 73.4 °F - 71.6 °F 94% 29.71 in 3.1 mi SE 9.2 mph - N/A Rain Light Rain Showers
3:06 AM 73.4 °F - 71.6 °F 94% 29.71 in 3.1 mi SE 13.8 mph - N/A Rain Light Rain Showers
3:28 AM 73.4 °F - 71.6 °F 94% 29.71 in 6.2 mi East 8.1 mph - N/A Rain Light Rain Showers
3:30 AM 73.4 °F - 71.6 °F 94% 29.71 in 6.2 mi East 8.1 mph - N/A Rain Light Rain Showers
4:00 AM 75 °F - 71 °F 83% 29.73 in - South 11.5 mph - -  
4:00 AM 75.2 °F - 71.6 °F 89% 29.71 in 6.2 mi South 11.5 mph - N/A   Mostly Cloudy
4:30 AM 75.2 °F - 69.8 °F 83% 29.71 in 6.2 mi South 9.2 mph - N/A   Mostly Cloudy
5:00 AM 75.2 °F - 69.8 °F 83% 29.71 in 6.2 mi South 12.7 mph - N/A Rain Light Rain Showers
5:30 AM 75.2 °F - 69.8 °F 83% 29.71 in 6.2 mi South 15.0 mph - N/A   Mostly Cloudy
6:00 AM 75 °F - 69 °F 77% 29.75 in - South 13.8 mph - -   Overcast
6:00 AM 75.2 °F - 69.8 °F 83% 29.74 in 6.2 mi South 13.8 mph - N/A Rain Light Rain Showers
6:30 AM 77.0 °F - 69.8 °F 78% 29.74 in 6.2 mi SSW 9.2 mph - N/A   Mostly Cloudy
6:53 AM 75.2 °F - 69.8 °F 83% 29.77 in 6.2 mi SSE 12.7 mph - N/A Rain Light Rain Showers
7:00 AM 73 °F - 71 °F 93% 29.79 in - ESE 15.0 mph - -  
7:00 AM 73.4 °F - 71.6 °F 94% 29.77 in 3.1 mi ESE 15.0 mph - N/A Rain Light Rain Showers
7:30 AM 75.2 °F - 69.8 °F 83% 29.77 in 6.2 mi South 15.0 mph - N/A Rain Light Rain Showers
8:00 AM 75.2 °F - 71.6 °F 89% 29.77 in 6.2 mi South 11.5 mph - N/A   Mostly Cloudy
8:30 AM 77.0 °F - 71.6 °F 83% 29.77 in 6.2 mi South 10.4 mph - N/A   Mostly Cloudy
9:00 AM 76 °F - 73 °F 86% 29.79 in 9 mi South 15.0 mph - -   Mostly Cloudy
9:00 AM 77.0 °F - 73.4 °F 89% 29.77 in 6.2 mi South 15.0 mph - N/A Rain Light Rain Showers
9:30 AM 77.0 °F - 73.4 °F 89% 29.77 in 6.2 mi SSE 15.0 mph - N/A   Mostly Cloudy
10:00 AM 78 °F - 73 °F 80% 29.78 in - South 10.4 mph - -  
10:00 AM 78.8 °F - 73.4 °F 83% 29.77 in 6.2 mi South 10.4 mph - N/A   Mostly Cloudy
10:30 AM 77.0 °F - 73.4 °F 89% 29.77 in 6.2 mi South 10.4 mph - N/A Rain Light Rain Showers
11:00 AM 78.8 °F - 73.4 °F 83% 29.77 in 6.2 mi South 10.4 mph - N/A   Mostly Cloudy
11:30 AM 78.8 °F - 75.2 °F 89% 29.77 in 3.7 mi SSE 12.7 mph - N/A Rain Light Rain Showers
12:00 PM 77 °F - 74 °F 90% 29.78 in - South 12.7 mph - -   Overcast
12:00 PM 77.0 °F - 75.2 °F 94% 29.77 in 6.2 mi South 12.7 mph - N/A Rain Light Rain Showers
12:30 PM 80.6 °F 86.2 °F 75.2 °F 84% 29.74 in 6.2 mi South 10.4 mph - N/A   Mostly Cloudy
1:00 PM 80 °F - 72 °F 72% 29.76 in - South 11.5 mph - -  
1:00 PM 80.6 °F 85.4 °F 73.4 °F 79% 29.74 in 6.2 mi South 11.5 mph - N/A   Mostly Cloudy
1:27 PM 78.8 °F - 75.2 °F 89% 29.74 in 3.7 mi ESE 3.5 mph - N/A Rain Light Rain Showers
1:30 PM 78.8 °F - 75.2 °F 89% 29.74 in 3.1 mi ESE 4.6 mph - N/A Rain Light Rain Showers
2:00 PM 77.0 °F - 73.4 °F 89% 29.74 in 5.6 mi South 6.9 mph - N/A Rain Light Rain Showers
2:30 PM 78.8 °F - 75.2 °F 89% 29.71 in 5.0 mi SSW 5.8 mph - N/A Rain Light Rain Showers
3:00 PM 78 °F - 75 °F 89% 29.72 in 12 mi South 11.5 mph - - Rain Light Rain Showers
3:00 PM 78.8 °F - 75.2 °F 89% 29.71 in 6.2 mi South 11.5 mph - N/A   Mostly Cloudy
3:30 PM 80.6 °F 86.2 °F 75.2 °F 84% 29.71 in 6.2 mi South 10.4 mph - N/A   Mostly Cloudy
4:00 PM 79 °F - 74 °F 81% 29.72 in - South 12.7 mph - -  
4:00 PM 78.8 °F - 73.4 °F 83% 29.71 in 6.2 mi South 12.7 mph - N/A   Mostly Cloudy
4:30 PM 78.8 °F - 73.4 °F 83% 29.71 in 6.2 mi South 11.5 mph - N/A   Mostly Cloudy
5:00 PM 78.8 °F - 73.4 °F 83% 29.71 in 6.2 mi South 12.7 mph - N/A   Mostly Cloudy
5:30 PM 78.8 °F - 73.4 °F 83% 29.71 in 6.2 mi South 9.2 mph - N/A   Mostly Cloudy
6:00 PM 77 °F - 74 °F 89% 29.74 in 4 mi SSE 10.4 mph - -   Overcast
6:00 PM 77.0 °F - 75.2 °F 94% 29.74 in 4.3 mi SSE 10.4 mph - N/A Rain Light Rain Showers
6:25 PM 77.0 °F - 75.2 °F 94% 29.74 in 3.7 mi SSE 15.0 mph - N/A Rain Light Rain Showers
6:30 PM 77.0 °F - 75.2 °F 94% 29.74 in 3.1 mi SSE 15.0 mph - N/A Rain Light Rain Showers
7:00 PM 75 °F - 73 °F 93% 29.77 in - South 12.7 mph - -  
7:00 PM 75.2 °F - 73.4 °F 94% 29.77 in 5.6 mi South 12.7 mph - N/A Rain Light Rain Showers
7:30 PM 75.2 °F - 73.4 °F 94% 29.77 in 5.6 mi South 12.7 mph - N/A Rain Light Rain Showers
8:00 PM 77.0 °F - 73.4 °F 89% 29.77 in 5.6 mi South 11.5 mph - N/A Rain Light Rain Showers
8:30 PM 77.0 °F - 73.4 °F 89% 29.80 in 5.6 mi South 13.8 mph - N/A   Mostly Cloudy
8:57 PM 77.0 °F - 71.6 °F 83% 29.80 in 1.9 mi SSW 9.2 mph - N/A Rain Rain Showers
9:00 PM 75 °F - 73 °F 91% 29.81 in 1 mi South 13.8 mph - -   Overcast
9:00 PM 75.2 °F - 73.4 °F 94% 29.80 in 1.9 mi South 13.8 mph - N/A Rain Rain Showers
9:19 PM 75.2 °F - 73.4 °F 94% 29.80 in 3.1 mi SSE 9.2 mph - N/A Rain Light Rain Showers
9:30 PM 75.2 °F - 73.4 °F 94% 29.80 in 1.9 mi South 11.5 mph - N/A Rain Rain Showers
9:50 PM 75.2 °F - 73.4 °F 94% 29.80 in 3.1 mi SSE 13.8 mph - N/A Rain Light Rain Showers
10:00 PM 75 °F - 72 °F 87% 29.82 in - South 15.0 mph - -  
10:00 PM 75.2 °F - 71.6 °F 89% 29.80 in 5.0 mi South 15.0 mph - N/A Rain Light Rain Showers
10:30 PM 75.2 °F - 71.6 °F 89% 29.80 in 6.2 mi South 17.3 mph - N/A Rain Light Rain Showers
11:00 PM 75.2 °F - 71.6 °F 89% 29.77 in 3.7 mi South 15.0 mph - N/A Rain Light Rain Showers
11:13 PM 73.4 °F - 71.6 °F 94% 29.80 in 2.5 mi South 12.7 mph - N/A Rain Rain Showers
11:30 PM 73.4 °F - 71.6 °F 94% 29.80 in 2.5 mi SSE 13.8 mph - N/A Rain Rain Showers
11:49 PM 73.4 °F - 73.4 °F 100% 29.77 in 5.6 mi South 13.8 mph - N/A Rain Light Rain Showers